| time (UTC) | temp F | wind direction | speed MPH | gust MPH | rain 1hr in | rain 24hr in | rain mn in | humidity % | barometer mb |
| 20260901005301 | 72 | 0.0 | 0.0 | 0.00 | 0.36 | 0.35 | 82 | 1012.5 | |
| 20260901004751 | 72 | 0.0 | 0.0 | 0.00 | 0.36 | 0.35 | 83 | 1012.4 | |
| 20260901004257 | 72 | 0.0 | 0.0 | 0.00 | 0.36 | 0.35 | 83 | 1012.2 | |
| 20260901003748 | 72 | 0.0 | 0.0 | 0.00 | 0.36 | 0.35 | 83 | 1012.3 | |
| 20260901003258 | 72 | 0.0 | 0.0 | 0.00 | 0.36 | 0.35 | 82 | 1012.3 | |
| 20260901002807 | 72 | 0.0 | 0.0 | 0.00 | 0.36 | 0.35 | 83 | 1012.3 | |
| 20260901002255 | 72 | 0.0 | 0.0 | 0.00 | 0.36 | 0.35 | 83 | 1012.2 | |
| 20260901001801 | 72 | 0.0 | 0.0 | 0.00 | 0.36 | 0.35 | 84 | 1012.2 | |
| 20260901001251 | 72 | 0.0 | 0.0 | 0.00 | 0.36 | 0.35 | 85 | 1012.3 | |
| 20260901000800 | 73 | 0.0 | 0.0 | 0.00 | 0.36 | 0.35 | 85 | 1012.4 | |
| 20260901000250 | 73 | 0.0 | 0.0 | 0.00 | 0.36 | 0.35 | 86 | 1012.3 | |
| 20260831235756 | 73 | 0.0 | 0.0 | 0.00 | 0.36 | 0.35 | 86 | 1012.3 | |
| 20260831235306 | 73 | 0.0 | 0.0 | 0.00 | 0.36 | 0.35 | 86 | 1012.3 | |
| 20260831234750 | 73 | 0.0 | 0.0 | 0.00 | 0.36 | 0.35 | 86 | 1012.3 | |
| 20260831234257 | 73 | 0.0 | 0.0 | 0.00 | 0.36 | 0.35 | 86 | 1012.4 | |
| 20260831233804 | 73 | 0.0 | 0.0 | 0.00 | 0.36 | 0.35 | 86 | 1012.3 | |
| 20260831233254 | 74 | 0.0 | 0.0 | 0.00 | 0.36 | 0.35 | 86 | 1012.3 | |
| 20260831232804 | 74 | 0.0 | 0.0 | 0.00 | 0.36 | 0.35 | 86 | 1012.1 | |
| 20260831232254 | 74 | 0.0 | 0.0 | 0.00 | 0.36 | 0.35 | 86 | 1012.1 | |
| 20260831231802 | 74 | 0.0 | 0.0 | 0.00 | 0.36 | 0.35 | 85 | 1012.0 | |
| 20260831231251 | 75 | 0.0 | 0.0 | 0.00 | 0.36 | 0.35 | 85 | 1012.0 | |
| 20260831230757 | 75 | 0.0 | 0.0 | 0.00 | 0.36 | 0.35 | 85 | 1011.9 | |
| 20260831230249 | 75 | 0.0 | 0.0 | 0.00 | 0.36 | 0.35 | 85 | 1011.8 | |
| 20260831225758 | 75 | 0.0 | 0.0 | 0.00 | 0.36 | 0.35 | 84 | 1011.8 | |
| 20260831225306 | 75 | 0.0 | 0.0 | 0.00 | 0.36 | 0.35 | 84 | 1011.8 | |
| 20260831224753 | 75 | 0.0 | 0.0 | 0.00 | 0.36 | 0.35 | 83 | 1011.9 | |
| 20260831224300 | 76 | 0.0 | 0.0 | 0.00 | 0.36 | 0.35 | 83 | 1011.8 | |
| 20260831223750 | 76 | 0.0 | 0.0 | 0.00 | 0.36 | 0.35 | 83 | 1011.7 | |
| 20260831223259 | 76 | 0.0 | 0.0 | 0.00 | 0.36 | 0.35 | 83 | 1011.8 | |
| 20260831222747 | 76 | 0.0 | 0.0 | 0.00 | 0.36 | 0.35 | 83 | 1011.8 | |
| 20260831222258 | 76 | 0.0 | 0.0 | 0.00 | 0.36 | 0.35 | 82 | 1011.8 | |
| 20260831221806 | 77 | 0.0 | 0.0 | 0.00 | 0.36 | 0.35 | 81 | 1011.8 | |
| 20260831221255 | 78 | 0.0 | 0.0 | 0.00 | 0.36 | 0.35 | 81 | 1011.7 | |
| 20260831220801 | 79 | 0.0 | 0.0 | 0.00 | 0.36 | 0.35 | 79 | 1011.7 | |
| 20260831220253 | 80 | 0.0 | 0.0 | 0.00 | 0.36 | 0.35 | 77 | 1011.7 | |
| 20260831215754 | 80 | 0.0 | 0.0 | 0.00 | 0.36 | 0.35 | 76 | 1011.6 | |
| 20260831215306 | 81 | 0.0 | 0.0 | 0.00 | 0.36 | 0.35 | 78 | 1011.5 | |
| 20260831214753 | 81 | 0.0 | 0.0 | 0.00 | 0.36 | 0.35 | 77 | 1011.5 | |
| 20260831214301 | 81 | 0.0 | 0.0 | 0.00 | 0.36 | 0.35 | 78 | 1011.5 | |
| 20260831213749 | 80 | 0.0 | 0.0 | 0.00 | 0.36 | 0.35 | 79 | 1011.4 | |
| 20260831213257 | 80 | 0.0 | 0.0 | 0.00 | 0.36 | 0.35 | 79 | 1011.4 | |
| 20260831212253 | 80 | 0.0 | 0.0 | 0.00 | 0.36 | 0.35 | 78 | 1011.4 | |
| 20260831211801 | 80 | 0.0 | 0.0 | 0.00 | 0.36 | 0.35 | 78 | 1011.5 | |
| 20260831211251 | 80 | 0.0 | 0.0 | 0.00 | 0.36 | 0.35 | 78 | 1011.5 | |
| 20260831210758 | 80 | 0.0 | 0.0 | 0.00 | 0.36 | 0.35 | 77 | 1011.6 | |
| 20260831210249 | 80 | 0.0 | 0.0 | 0.00 | 0.36 | 0.35 | 77 | 1011.6 | |
| 20260831205758 | 80 | 0.0 | 0.0 | 0.00 | 0.36 | 0.35 | 77 | 1011.5 | |
| 20260831205306 | 80 | 0.0 | 0.0 | 0.00 | 0.36 | 0.35 | 76 | 1011.5 | |
| 20260831204754 | 80 | 0.0 | 0.0 | 0.00 | 0.36 | 0.35 | 77 | 1011.5 | |
| 20260831204301 | 80 | 0.0 | 0.0 | 0.00 | 0.36 | 0.35 | 76 | 1011.5 | |
| 20260831203751 | 81 | 0.0 | 0.0 | 0.00 | 0.36 | 0.35 | 75 | 1011.6 | |
| 20260831203258 | 81 | 0.0 | 0.0 | 0.00 | 0.36 | 0.35 | 74 | 1011.6 | |
| 20260831202803 | 82 | 0.0 | 0.0 | 0.00 | 0.36 | 0.35 | 73 | 1011.7 | |
| 20260831202253 | 83 | 0.0 | 0.0 | 0.00 | 0.36 | 0.35 | 71 | 1011.8 | |
| 20260831201804 | 83 | 0.0 | 0.0 | 0.00 | 0.36 | 0.35 | 71 | 1011.8 | |
| 20260831201252 | 83 | 0.0 | 0.0 | 0.00 | 0.36 | 0.35 | 70 | 1011.9 | |
| 20260831200800 | 84 | 0.0 | 0.0 | 0.00 | 0.36 | 0.35 | 69 | 1011.9 | |
| 20260831200251 | 84 | 0.0 | 0.0 | 0.00 | 0.36 | 0.35 | 71 | 1012.0 | |
| 20260831195758 | 84 | 0.0 | 0.0 | 0.00 | 0.36 | 0.35 | 72 | 1011.9 | |
| 20260831195249 | 84 | 0.0 | 0.0 | 0.00 | 0.36 | 0.35 | 70 | 1012.0 | |
| 20260831194757 | 84 | 0.0 | 0.0 | 0.00 | 0.36 | 0.35 | 70 | 1012.2 | |
| 20260831194304 | 84 | 0.0 | 0.0 | 0.00 | 0.36 | 0.35 | 70 | 1012.2 | |
| 20260831193752 | 84 | 0.0 | 0.0 | 0.00 | 0.36 | 0.35 | 70 | 1012.3 | |
| 20260831193300 | 84 | 0.0 | 0.0 | 0.00 | 0.36 | 0.35 | 70 | 1012.3 | |
| 20260831192256 | 83 | 0.0 | 0.0 | 0.00 | 0.36 | 0.35 | 73 | 1012.3 | |
| 20260831191801 | 82 | 0.0 | 0.0 | 0.00 | 0.36 | 0.35 | 73 | 1012.4 | |
| 20260831191248 | 82 | 0.0 | 0.0 | 0.00 | 0.36 | 0.35 | 74 | 1012.4 | |
| 20260831190758 | 82 | 0.0 | 0.0 | 0.00 | 0.36 | 0.35 | 75 | 1012.4 | |
| 20260831190305 | 81 | 0.0 | 0.0 | 0.00 | 0.36 | 0.35 | 75 | 1012.5 | |
| 20260831185755 | 81 | 0.0 | 0.0 | 0.00 | 0.36 | 0.35 | 77 | 1012.6 | |
| 20260831185259 | 81 | 0.0 | 0.0 | 0.00 | 0.36 | 0.35 | 77 | 1012.6 | |
| 20260831184807 | 81 | 0.0 | 0.0 | 0.00 | 0.36 | 0.35 | 77 | 1012.5 | |
| 20260831184255 | 81 | 0.0 | 0.0 | 0.00 | 0.36 | 0.35 | 79 | 1012.6 | |
| 20260831183254 | 81 | 0.0 | 0.0 | 0.00 | 0.36 | 0.35 | 77 | 1012.7 | |
| 20260831182800 | 81 | 0.0 | 0.0 | 0.00 | 0.36 | 0.35 | 78 | 1012.7 | |
| 20260831182250 | 81 | 0.0 | 0.0 | 0.00 | 0.36 | 0.35 | 79 | 1012.6 | |
| 20260831181757 | 81 | 0.0 | 0.0 | 0.00 | 0.36 | 0.35 | 80 | 1012.5 | |
| 20260831181304 | 81 | 0.0 | 0.0 | 0.00 | 0.36 | 0.35 | 80 | 1012.6 | |
| 20260831180752 | 81 | 0.0 | 0.0 | 0.00 | 0.36 | 0.35 | 81 | 1012.6 | |
| 20260831175807 | 80 | 0.0 | 0.0 | 0.00 | 0.36 | 0.35 | 81 | 1012.6 | |
| 20260831175255 | 80 | 0.0 | 0.0 | 0.00 | 0.36 | 0.35 | 82 | 1012.8 | |
| 20260831174803 | 79 | 0.0 | 0.0 | 0.00 | 0.36 | 0.35 | 83 | 1012.9 | |
| 20260831174253 | 79 | 0.0 | 0.0 | 0.00 | 0.36 | 0.35 | 84 | 1012.9 | |
| 20260831173757 | 78 | 0.0 | 0.0 | 0.00 | 0.36 | 0.35 | 83 | 1013.0 | |
| 20260831173248 | 78 | 0.0 | 0.0 | 0.00 | 0.36 | 0.35 | 84 | 1013.0 | |
| 20260831172755 | 78 | 0.0 | 0.0 | 0.00 | 0.36 | 0.35 | 84 | 1013.0 | |
| 20260831172306 | 78 | 0.0 | 0.0 | 0.00 | 0.36 | 0.35 | 85 | 1013.1 | |
| 20260831171753 | 78 | 0.0 | 0.0 | 0.00 | 0.36 | 0.35 | 84 | 1013.1 | |
| 20260831170750 | 77 | 0.0 | 0.0 | 0.00 | 0.36 | 0.35 | 85 | 1013.1 | |
| 20260831170300 | 77 | 0.0 | 0.0 | 0.00 | 0.36 | 0.35 | 86 | 1013.1 | |
| 20260831165747 | 76 | 0.0 | 0.0 | 0.00 | 0.36 | 0.35 | 87 | 1013.1 | |
| 20260831165258 | 76 | 0.0 | 0.0 | 0.00 | 0.36 | 0.35 | 87 | 1013.1 | |
| 20260831164805 | 76 | 0.0 | 0.0 | 0.00 | 0.36 | 0.35 | 86 | 1013.2 | |
| 20260831164254 | 75 | 0.0 | 0.0 | 0.00 | 0.36 | 0.35 | 85 | 1013.2 | |
| 20260831163303 | 74 | 0.0 | 0.0 | 0.00 | 0.36 | 0.35 | 77 | 1013.4 | |
| 20260831162751 | 74 | 0.0 | 0.0 | 0.00 | 0.36 | 0.35 | 69 | 1013.5 | |
| 20260831162254 | 73 | 0.0 | 0.0 | 0.00 | 0.36 | 0.35 | 65 | 1013.7 | |
| 20260831161803 | 73 | 0.0 | 0.0 | 0.00 | 0.36 | 0.35 | 62 | 1013.7 | |
| 20260831161252 | 72 | 0.0 | 0.0 | 0.00 | 0.36 | 0.35 | 60 | 1013.8 | |
| 20260831160759 | 72 | 0.0 | 0.0 | 0.00 | 0.36 | 0.35 | 60 | 1013.9 | |
| 20260831160248 | 72 | 0.0 | 0.0 | 0.00 | 0.36 | 0.35 | 59 | 1013.9 | |
| 20260831155757 | 72 | 0.0 | 0.0 | 0.00 | 0.36 | 0.35 | 59 | 1013.9 | |
| 20260831155248 | 72 | 0.0 | 0.0 | 0.00 | 0.36 | 0.35 | 59 | 1014.0 | |
| 20260831154755 | 72 | 0.0 | 0.0 | 0.00 | 0.36 | 0.35 | 59 | 1014.0 | |
| 20260831154301 | 72 | 0.0 | 0.0 | 0.00 | 0.36 | 0.35 | 59 | 1014.1 | |
| 20260831153748 | 71 | 0.0 | 0.0 | 0.01 | 0.36 | 0.35 | 60 | 1014.3 | |
| 20260831153306 | 71 | 0.0 | 0.0 | 0.01 | 0.36 | 0.35 | 60 | 1014.4 | |
| 20260831152813 | 70 | 0.0 | 0.0 | 0.01 | 0.36 | 0.35 | 60 | 1014.4 | |
| 20260831152306 | 70 | 0.0 | 0.0 | 0.01 | 0.36 | 0.35 | 60 | 1014.5 | |
| 20260831151812 | 69 | 0.0 | 0.0 | 0.01 | 0.36 | 0.35 | 60 | 1014.5 | |
| 20260831151301 | 69 | 0.0 | 0.0 | 0.01 | 0.36 | 0.35 | 60 | 1014.4 | |
| 20260831150805 | 69 | 0.0 | 0.0 | 0.02 | 0.36 | 0.35 | 60 | 1014.3 | |
| 20260831150255 | 69 | 0.0 | 0.0 | 0.02 | 0.36 | 0.35 | 60 | 1014.3 | |
| 20260831145801 | 69 | 0.0 | 0.0 | 0.03 | 0.36 | 0.35 | 60 | 1014.4 | |
| 20260831145250 | 69 | 0.0 | 0.0 | 0.04 | 0.36 | 0.35 | 60 | 1014.5 | |
| 20260831144759 | 69 | 0.0 | 0.0 | 0.05 | 0.36 | 0.35 | 60 | 1014.6 | |
| 20260831144306 | 69 | 0.0 | 0.0 | 0.07 | 0.36 | 0.35 | 60 | 1014.7 | |
| 20260831143756 | 69 | 0.0 | 0.0 | 0.07 | 0.35 | 0.34 | 60 | 1014.8 | |
| 20260831143258 | 69 | 0.0 | 0.0 | 0.08 | 0.35 | 0.34 | 60 | 1014.5 | |
| 20260831142807 | 69 | 0.0 | 0.0 | 0.09 | 0.35 | 0.34 | 60 | 1014.6 | |
| 20260831141801 | 69 | 0.0 | 0.0 | 0.12 | 0.35 | 0.34 | 60 | 1014.8 | |
| 20260831141251 | 68 | 0.0 | 0.0 | 0.12 | 0.34 | 0.33 | 60 | 1014.9 | |
| 20260831140759 | 68 | 0.0 | 0.0 | 0.14 | 0.34 | 0.33 | 60 | 1014.9 | |
| 20260831140307 | 68 | 0.0 | 0.0 | 0.14 | 0.34 | 0.33 | 60 | 1015.0 | |
| 20260831135756 | 68 | 0.0 | 0.0 | 0.14 | 0.33 | 0.32 | 60 | 1015.1 | |
| 20260831135306 | 68 | 0.0 | 0.0 | 0.15 | 0.32 | 0.31 | 60 | 1015.2 | |
| 20260831134752 | 68 | 0.0 | 0.0 | 0.15 | 0.31 | 0.30 | 60 | 1015.3 | |
| 20260831134300 | 68 | 0.0 | 0.0 | 0.14 | 0.29 | 0.28 | 60 | 1015.3 | |
| 20260831133748 | 68 | 0.0 | 0.0 | 0.13 | 0.28 | 0.27 | 61 | 1015.2 | |
| 20260831133258 | 68 | 0.0 | 0.0 | 0.13 | 0.27 | 0.26 | 61 | 1015.1 | |
| 20260831132805 | 68 | 0.0 | 0.0 | 0.11 | 0.25 | 0.24 | 60 | 1015.3 | |
| 20260831132254 | 68 | 0.0 | 0.0 | 0.11 | 0.24 | 0.23 | 60 | 1015.5 | |
| 20260831131802 | 68 | 0.0 | 0.0 | 0.10 | 0.22 | 0.21 | 60 | 1015.4 | |
| 20260831131252 | 68 | 0.0 | 0.0 | 0.10 | 0.21 | 0.20 | 61 | 1015.4 | |
| 20260831130759 | 67 | 0.0 | 0.0 | 0.10 | 0.20 | 0.19 | 61 | 1015.6 | |
| 20260831130303 | 67 | 0.0 | 0.0 | 0.12 | 0.20 | 0.19 | 61 | 1015.7 | |
| 20260831125258 | 67 | 0.0 | 0.0 | 0.11 | 0.17 | 0.16 | 61 | 1015.7 | |
| 20260831124750 | 67 | 0.0 | 0.0 | 0.10 | 0.16 | 0.15 | 61 | 1015.4 | |
| 20260831124258 | 67 | 0.0 | 0.0 | 0.09 | 0.15 | 0.14 | 61 | 1015.2 | |
| 20260831123806 | 67 | 0.0 | 0.0 | 0.08 | 0.14 | 0.13 | 61 | 1015.0 | |
| 20260831123256 | 67 | 0.0 | 0.0 | 0.08 | 0.14 | 0.13 | 61 | 1014.7 | |
| 20260831122802 | 67 | 0.0 | 0.0 | 0.07 | 0.13 | 0.12 | 61 | 1014.7 | |
| 20260831121759 | 67 | 0.0 | 0.0 | 0.06 | 0.12 | 0.11 | 61 | 1014.4 | |
| 20260831121307 | 67 | 0.0 | 0.0 | 0.05 | 0.11 | 0.10 | 61 | 1014.3 | |
| 20260831120757 | 67 | 0.0 | 0.0 | 0.04 | 0.10 | 0.09 | 61 | 1014.4 | |
| 20260831120303 | 67 | 0.0 | 0.0 | 0.02 | 0.08 | 0.07 | 61 | 1014.5 | |
| 20260831115753 | 67 | 0.0 | 0.0 | 0.01 | 0.07 | 0.06 | 61 | 1014.1 | |
| 20260831115301 | 67 | 0.0 | 0.0 | 0.00 | 0.06 | 0.05 | 61 | 1014.0 | |
| 20260831114750 | 67 | 0.0 | 0.0 | 0.00 | 0.06 | 0.05 | 61 | 1013.8 | |
| 20260831114253 | 67 | 0.0 | 0.0 | 0.00 | 0.06 | 0.05 | 61 | 1013.9 | |
| 20260831113800 | 67 | 0.0 | 0.0 | 0.01 | 0.06 | 0.05 | 61 | 1013.7 | |
| 20260831113250 | 67 | 0.0 | 0.0 | 0.01 | 0.06 | 0.05 | 61 | 1013.6 | |
| 20260831112756 | 67 | 0.0 | 0.0 | 0.02 | 0.06 | 0.05 | 61 | 1013.5 | |
| 20260831112307 | 67 | 0.0 | 0.0 | 0.02 | 0.06 | 0.05 | 61 | 1013.7 | |
| 20260831111754 | 67 | 0.0 | 0.0 | 0.02 | 0.06 | 0.05 | 61 | 1013.8 | |
| 20260831111302 | 67 | 0.0 | 0.0 | 0.02 | 0.06 | 0.05 | 61 | 1013.7 | |
| 20260831110750 | 67 | 0.0 | 0.0 | 0.03 | 0.06 | 0.05 | 61 | 1013.9 | |
| 20260831110258 | 67 | 0.0 | 0.0 | 0.03 | 0.06 | 0.05 | 61 | 1013.8 | |
| 20260831105806 | 67 | 0.0 | 0.0 | 0.04 | 0.06 | 0.05 | 61 | 1013.7 | |
| 20260831105255 | 67 | 0.0 | 0.0 | 0.04 | 0.06 | 0.05 | 61 | 1013.6 | |
| 20260831104802 | 67 | 0.0 | 0.0 | 0.04 | 0.06 | 0.05 | 61 | 1013.6 | |
| 20260831104251 | 67 | 0.0 | 0.0 | 0.04 | 0.06 | 0.05 | 61 | 1013.9 | |
| 20260831103800 | 67 | 0.0 | 0.0 | 0.03 | 0.05 | 0.04 | 61 | 1014.0 | |
| 20260831103307 | 67 | 0.0 | 0.0 | 0.03 | 0.05 | 0.04 | 61 | 1014.2 | |
| 20260831102756 | 67 | 0.0 | 0.0 | 0.03 | 0.04 | 0.03 | 61 | 1014.2 | |
| 20260831102305 | 67 | 0.0 | 0.0 | 0.03 | 0.04 | 0.03 | 61 | 1014.5 | |
| 20260831101752 | 67 | 0.0 | 0.0 | 0.03 | 0.04 | 0.03 | 61 | 1014.6 | |
| 20260831101300 | 67 | 0.0 | 0.0 | 0.03 | 0.04 | 0.03 | 61 | 1014.8 | |
| 20260831100750 | 67 | 0.0 | 0.0 | 0.02 | 0.03 | 0.02 | 61 | 1015.0 | |
| 20260831100258 | 67 | 0.0 | 0.0 | 0.02 | 0.03 | 0.02 | 61 | 1015.2 | |
| 20260831095803 | 67 | 0.0 | 0.0 | 0.01 | 0.02 | 0.01 | 61 | 1015.3 | |
| 20260831095252 | 67 | 0.0 | 0.0 | 0.01 | 0.02 | 0.01 | 61 | 1015.3 | |
| 20260831094759 | 67 | 0.0 | 0.0 | 0.01 | 0.02 | 0.01 | 61 | 1015.3 | |
| 20260831094250 | 67 | 0.0 | 0.0 | 0.01 | 0.02 | 0.01 | 61 | 1015.6 | |
| 20260831093756 | 67 | 0.0 | 0.0 | 0.01 | 0.02 | 0.01 | 61 | 1015.8 | |
| 20260831092751 | 67 | 0.0 | 0.0 | 0.00 | 0.01 | 0.00 | 61 | 1015.7 | |
| 20260831092300 | 67 | 0.0 | 0.0 | 0.00 | 0.01 | 0.00 | 61 | 1015.8 | |
| 20260831091749 | 67 | 0.0 | 0.0 | 0.00 | 0.01 | 0.00 | 61 | 1015.7 | |
| 20260831091259 | 67 | 0.0 | 0.0 | 0.00 | 0.01 | 0.00 | 61 | 1015.5 | |
| 20260831090748 | 67 | 0.0 | 0.0 | 0.00 | 0.01 | 0.00 | 61 | 1015.5 | |
| 20260831090258 | 67 | 0.0 | 0.0 | 0.00 | 0.01 | 0.00 | 61 | 1015.7 | |
| 20260831085806 | 67 | 0.0 | 0.0 | 0.00 | 0.01 | 0.00 | 61 | 1015.8 | |
| 20260831085254 | 66 | 0.0 | 0.0 | 0.00 | 0.01 | 0.00 | 61 | 1015.6 | |
| 20260831084802 | 66 | 0.0 | 0.0 | 0.00 | 0.01 | 0.00 | 61 | 1015.5 | |
| 20260831084253 | 66 | 0.0 | 0.0 | 0.00 | 0.01 | 0.00 | 61 | 1015.3 | |
| 20260831083759 | 66 | 0.0 | 0.0 | 0.00 | 0.01 | 0.00 | 62 | 1015.2 | |
| 20260831083248 | 67 | 0.0 | 0.0 | 0.00 | 0.01 | 0.00 | 62 | 1015.0 | |
| 20260831082757 | 67 | 0.0 | 0.0 | 0.00 | 0.01 | 0.00 | 61 | 1015.3 | |
| 20260831082300 | 67 | 0.0 | 0.0 | 0.00 | 0.01 | 0.00 | 61 | 1015.4 | |
| 20260831081750 | 67 | 0.0 | 0.0 | 0.00 | 0.01 | 0.00 | 61 | 1015.4 | |
| 20260831081257 | 67 | 0.0 | 0.0 | 0.00 | 0.01 | 0.00 | 61 | 1015.8 | |
| 20260831080251 | 67 | 0.0 | 0.0 | 0.00 | 0.01 | 0.00 | 62 | 1015.8 | |
| 20260831075758 | 67 | 0.0 | 0.0 | 0.00 | 0.01 | 0.00 | 61 | 1015.8 | |
| 20260831075307 | 67 | 0.0 | 0.0 | 0.00 | 0.01 | 0.00 | 62 | 1016.0 | |
| 20260831074755 | 67 | 0.0 | 0.0 | 0.00 | 0.01 | 0.00 | 62 | 1015.8 | |
| 20260831074303 | 67 | 0.0 | 0.0 | 0.00 | 0.01 | 0.00 | 62 | 1015.8 | |
| 20260831073754 | 66 | 0.0 | 0.0 | 0.00 | 0.01 | 0.00 | 62 | 1015.8 | |
| 20260831073300 | 66 | 0.0 | 0.0 | 0.00 | 0.01 | 0.00 | 62 | 1015.6 | |
| 20260831072807 | 66 | 0.0 | 0.0 | 0.00 | 0.01 | 0.00 | 62 | 1015.3 | |
| 20260831072257 | 66 | 0.0 | 0.0 | 0.00 | 0.01 | 0.00 | 62 | 1015.2 | |
| 20260831071807 | 66 | 0.0 | 0.0 | 0.00 | 0.01 | 0.00 | 62 | 1015.0 | |
| 20260831071255 | 66 | 0.0 | 0.0 | 0.00 | 0.01 | 0.00 | 62 | 1014.7 | |
| 20260831070802 | 66 | 0.0 | 0.0 | 0.00 | 0.01 | 0.00 | 62 | 1014.8 | |
| 20260831070252 | 66 | 0.0 | 0.0 | 0.00 | 0.01 | 0.00 | 62 | 1014.8 | |
| 20260831065759 | 66 | 0.0 | 0.0 | 0.00 | 0.02 | 0.00 | 62 | 1014.8 | |
| 20260831065306 | 66 | 0.0 | 0.0 | 0.00 | 0.02 | 0.00 | 62 | 1014.9 | |
| 20260831064754 | 66 | 0.0 | 0.0 | 0.00 | 0.02 | 0.00 | 62 | 1015.1 | |
| 20260831064305 | 66 | 0.0 | 0.0 | 0.00 | 0.02 | 0.00 | 62 | 1015.1 | |
| 20260831063751 | 66 | 0.0 | 0.0 | 0.00 | 0.02 | 0.00 | 62 | 1015.0 | |
| 20260831063256 | 66 | 0.0 | 0.0 | 0.00 | 0.02 | 0.00 | 63 | 1015.2 | |
| 20260831062806 | 66 | 0.0 | 0.0 | 0.00 | 0.02 | 0.00 | 63 | 1015.3 | |
| 20260831062256 | 66 | 0.0 | 0.0 | 0.00 | 0.02 | 0.00 | 63 | 1015.3 | |
| 20260831061803 | 66 | 0.0 | 0.0 | 0.00 | 0.02 | 0.00 | 63 | 1015.4 | |
| 20260831061252 | 66 | 0.0 | 0.0 | 0.00 | 0.02 | 0.00 | 63 | 1015.4 | |
| 20260831060757 | 66 | 0.0 | 0.0 | 0.00 | 0.02 | 0.00 | 63 | 1015.5 | |
| 20260831060307 | 66 | 0.0 | 0.0 | 0.00 | 0.02 | 0.00 | 63 | 1015.6 | |
| 20260831055757 | 66 | 0.0 | 0.0 | 0.00 | 0.05 | 0.00 | 63 | 1015.6 | |
| 20260831055306 | 66 | 0.0 | 0.0 | 0.00 | 0.05 | 0.00 | 63 | 1015.5 | |
| 20260831054753 | 66 | 0.0 | 0.0 | 0.00 | 0.05 | 0.00 | 63 | 1015.5 | |
| 20260831054302 | 66 | 0.0 | 0.0 | 0.00 | 0.05 | 0.00 | 63 | 1015.4 | |
| 20260831053751 | 67 | 0.0 | 0.0 | 0.00 | 0.05 | 0.00 | 63 | 1015.4 | |
| 20260831053300 | 67 | 0.0 | 0.0 | 0.00 | 0.05 | 0.00 | 63 | 1015.5 | |
| 20260831052809 | 67 | 0.0 | 0.0 | 0.00 | 0.05 | 0.00 | 63 | 1015.5 | |
| 20260831052254 | 67 | 0.0 | 0.0 | 0.00 | 0.05 | 0.00 | 63 | 1015.4 | |
| 20260831051304 | 67 | 0.0 | 0.0 | 0.00 | 0.05 | 0.00 | 63 | 1015.5 | |
| 20260831050754 | 67 | 0.0 | 0.0 | 0.00 | 0.05 | 0.00 | 63 | 1015.6 | |
| 20260831050302 | 67 | 0.0 | 0.0 | 0.00 | 0.05 | 0.00 | 63 | 1015.5 | |
| 20260831045752 | 67 | 0.0 | 0.0 | 0.00 | 0.07 | 0.00 | 63 | 1015.6 | |
| 20260831045259 | 67 | 0.0 | 0.0 | 0.01 | 0.07 | 0.00 | 63 | 1015.6 | |
| 20260831044807 | 67 | 0.0 | 0.0 | 0.01 | 0.07 | 0.00 | 63 | 1015.6 | |
| 20260831044254 | 67 | 0.0 | 0.0 | 0.01 | 0.07 | 0.00 | 63 | 1015.5 | |
| 20260831043802 | 67 | 0.0 | 0.0 | 0.01 | 0.07 | 0.00 | 63 | 1015.5 | |
| 20260831043250 | 67 | 0.0 | 0.0 | 0.01 | 0.07 | 0.00 | 64 | 1015.5 | |
| 20260831042801 | 67 | 0.0 | 0.0 | 0.01 | 0.07 | 0.00 | 64 | 1015.5 | |
| 20260831042307 | 67 | 0.0 | 0.0 | 0.01 | 0.07 | 0.00 | 64 | 1015.6 | |
| 20260831041756 | 67 | 0.0 | 0.0 | 0.01 | 0.07 | 0.00 | 64 | 1015.6 | |
| 20260831041303 | 67 | 0.0 | 0.0 | 0.01 | 0.07 | 0.00 | 64 | 1015.6 | |
| 20260831040752 | 67 | 0.0 | 0.0 | 0.01 | 0.07 | 0.00 | 64 | 1015.6 | |
| 20260831040301 | 67 | 0.0 | 0.0 | 0.01 | 0.07 | 0.00 | 64 | 1015.7 | |
| 20260831035750 | 67 | 0.0 | 0.0 | 0.00 | 0.08 | 0.06 | 64 | 1015.7 | |
| 20260831035259 | 67 | 0.0 | 0.0 | 0.00 | 0.08 | 0.06 | 64 | 1015.8 | |
| 20260831034806 | 67 | 0.0 | 0.0 | 0.00 | 0.08 | 0.06 | 65 | 1015.9 | |
| 20260831034255 | 67 | 0.0 | 0.0 | 0.00 | 0.08 | 0.06 | 65 | 1015.9 | |
| 20260831033803 | 67 | 0.0 | 0.0 | 0.00 | 0.08 | 0.06 | 65 | 1015.9 | |
| 20260831033251 | 67 | 0.0 | 0.0 | 0.00 | 0.08 | 0.06 | 65 | 1015.9 | |
| 20260831032756 | 67 | 0.0 | 0.0 | 0.00 | 0.08 | 0.06 | 65 | 1015.8 | |
| 20260831032306 | 67 | 0.0 | 0.0 | 0.00 | 0.08 | 0.06 | 65 | 1015.8 | |
| 20260831031754 | 67 | 0.0 | 0.0 | 0.00 | 0.08 | 0.06 | 66 | 1015.8 | |
| 20260831031305 | 67 | 0.0 | 0.0 | 0.00 | 0.08 | 0.06 | 66 | 1015.8 | |
| 20260831030755 | 67 | 0.0 | 0.0 | 0.00 | 0.08 | 0.06 | 66 | 1015.9 | |
| 20260831030304 | 67 | 0.0 | 0.0 | 0.00 | 0.08 | 0.06 | 66 | 1016.0 | |
| 20260831025752 | 67 | 0.0 | 0.0 | 0.00 | 0.14 | 0.06 | 66 | 1016.0 | |
| 20260831025259 | 67 | 0.0 | 0.0 | 0.00 | 0.14 | 0.06 | 67 | 1016.0 | |
| 20260831024807 | 67 | 0.0 | 0.0 | 0.00 | 0.14 | 0.06 | 67 | 1016.0 | |
| 20260831024257 | 67 | 0.0 | 0.0 | 0.00 | 0.14 | 0.06 | 67 | 1015.9 | |
| 20260831023804 | 67 | 0.0 | 0.0 | 0.00 | 0.14 | 0.06 | 67 | 1016.0 | |
| 20260831023254 | 67 | 0.0 | 0.0 | 0.00 | 0.14 | 0.06 | 67 | 1016.0 | |
| 20260831022800 | 67 | 0.0 | 0.0 | 0.00 | 0.14 | 0.06 | 68 | 1016.0 | |
| 20260831022249 | 67 | 0.0 | 0.0 | 0.00 | 0.14 | 0.06 | 68 | 1016.0 | |
| 20260831021759 | 67 | 0.0 | 0.0 | 0.00 | 0.14 | 0.06 | 69 | 1015.9 | |
| 20260831021306 | 67 | 0.0 | 0.0 | 0.00 | 0.14 | 0.06 | 69 | 1015.9 | |
| 20260831020754 | 67 | 0.0 | 0.0 | 0.00 | 0.14 | 0.06 | 69 | 1015.9 | |
| 20260831020302 | 68 | 0.0 | 0.0 | 0.00 | 0.14 | 0.06 | 68 | 1016.0 | |
| 20260831015751 | 68 | 0.0 | 0.0 | 0.00 | 0.15 | 0.06 | 68 | 1016.0 | |
| 20260831015258 | 68 | 0.0 | 0.0 | 0.00 | 0.15 | 0.06 | 68 | 1016.0 | |
| 20260831014808 | 68 | 0.0 | 0.0 | 0.00 | 0.15 | 0.06 | 68 | 1015.8 | |
| 20260831014256 | 68 | 0.0 | 0.0 | 0.00 | 0.15 | 0.06 | 68 | 1015.8 | |
| 20260831013306 | 68 | 0.0 | 0.0 | 0.00 | 0.15 | 0.06 | 68 | 1015.4 | |
| 20260831012755 | 68 | 0.0 | 0.0 | 0.00 | 0.15 | 0.06 | 68 | 1015.5 | |
| 20260831012305 | 68 | 0.0 | 0.0 | 0.00 | 0.15 | 0.06 | 68 | 1015.7 | |
| 20260831011752 | 68 | 0.0 | 0.0 | 0.00 | 0.15 | 0.06 | 68 | 1015.6 | |
| 20260831011259 | 68 | 0.0 | 0.0 | 0.00 | 0.15 | 0.06 | 67 | 1015.6 | |
| 20260831010808 | 68 | 0.0 | 0.0 | 0.00 | 0.15 | 0.06 | 68 | 1015.6 | |
| 20260831005802 | 68 | 0.0 | 0.0 | 0.00 | 0.15 | 0.06 | 68 | 1015.5 |